Tanana, AK

6:03 PM AKST on January 20, 2018 (GMT -0900)
Calhoun Memorial

Weather History for PATA - September, 2012

Change the Weather History Date:

Wednesday, September 12, 2012

  Actual Average Record
Temperature  
Mean Temperature 38 °F -  
Max Temperature 53 °F 54 °F 68 °F (1979)
Min Temperature 24 °F 36 °F 19 °F (2004)
Degree Days  
Heating Degree Days 26    
Moisture  
Dew Point 27 °F    
Average Humidity 67    
Maximum Humidity 88    
Minimum Humidity 41    
Precipitation  
Precipitation 0.00 in - - ()
Sea Level Pressure  
Sea Level Pressure 29.78 in    
Wind  
Wind Speed 4 mph (NE)    
Max Wind Speed 8 mph    
Max Gust Speed -    
Visibility 10 miles    
Events      
Averages and records for this station are not official NWS values.
T = Trace of Precipitation, MM = Missing Value Source: NWS Daily Summary

Daily Weather History Graph

Daily Weather History Graph

Search for Another Location

Airport or City:

Trip Planner

Search our weather history database for the weather conditions in past years. The results will help you decide how hot, cold, wet, or windy it might be!

Date:

Astronomy

Sep. 12, 2012 Rise Set
Actual Time 7:22 AM AKDT 8:44 PM AKDT
Civil Twilight 6:31 AM AKDT 9:35 PM AKDT
Nautical Twilight 5:24 AM AKDT 10:41 PM AKDT
Astronomical Twilight 3:55 AM AKDT 12:07 AM AKDT
Moon 2:43 AM AKDT (9/12) 7:26 PM AKDT (9/12)
Length of Visible Light 15h 03m
Length of Day
13h 21m
Waning Crescent, 12% of the Moon is Illuminated
Sep 12
Waning Crescent
Sep 15
New
Sep 22
First Quarter
Sep 29
Full
Oct 7
Last Quarter

Hourly Weather History & Observations

Time (AKDT) Temp. Windchill Dew Point Humidity Pressure Visibility Wind Dir Wind Speed Gust Speed Precip Events Conditions
12:52 AM 33.1 °F 27.7 °F 25.0 °F 72% 29.81 in 10.0 mi NW 5.8 mph - N/A   Clear
1:52 AM 28.9 °F - 25.0 °F 85% 29.80 in 10.0 mi Calm Calm - N/A   Clear
2:52 AM 26.1 °F 21.9 °F 23.0 °F 88% 29.80 in 10.0 mi NW 3.5 mph - N/A   Clear
3:52 AM 26.1 °F 21.9 °F 23.0 °F 88% 29.79 in 10.0 mi NW 3.5 mph - N/A   Clear
4:52 AM 26.1 °F 20.5 °F 21.9 °F 84% 29.79 in 10.0 mi North 4.6 mph - N/A   Clear
5:52 AM 26.1 °F 18.4 °F 23.0 °F 88% 29.79 in 10.0 mi NNE 6.9 mph - N/A   Clear
6:52 AM 24.1 °F 17.0 °F 21.0 °F 88% 29.78 in 10.0 mi North 5.8 mph - N/A   Clear
7:52 AM 27.0 °F - 23.0 °F 85% 29.78 in 10.0 mi Calm Calm - N/A   Partly Cloudy
8:52 AM 30.0 °F - 25.0 °F 82% 29.78 in 10.0 mi Calm Calm - N/A   Partly Cloudy
9:52 AM 37.9 °F - 28.9 °F 70% 29.78 in 10.0 mi Calm Calm - N/A   Clear
10:52 AM 42.1 °F - 30.0 °F 62% 29.78 in 10.0 mi Calm Calm - N/A   Partly Cloudy
11:52 AM 45.0 °F 43.5 °F 30.9 °F 58% 29.77 in 10.0 mi East 3.5 mph - N/A   Partly Cloudy
12:52 PM 48.0 °F - 32.0 °F 54% 29.77 in 10.0 mi SE 6.9 mph - N/A   Clear
1:52 PM 51.1 °F - 33.1 °F 50% 29.77 in 10.0 mi SE 6.9 mph - N/A   Partly Cloudy
2:52 PM 52.0 °F - 32.0 °F 47% 29.76 in 10.0 mi SE 8.1 mph - N/A   Partly Cloudy
3:52 PM 53.1 °F - 30.9 °F 43% 29.75 in 10.0 mi SE 6.9 mph - N/A   Partly Cloudy
4:52 PM 53.1 °F - 30.0 °F 41% 29.75 in 10.0 mi SE 5.8 mph - N/A   Partly Cloudy
5:52 PM 52.0 °F - 28.9 °F 41% 29.76 in 10.0 mi ESE 5.8 mph - N/A   Partly Cloudy
6:52 PM 51.1 °F - 28.9 °F 43% 29.77 in 10.0 mi ESE 4.6 mph - N/A   Partly Cloudy
7:52 PM 48.0 °F - 30.0 °F 50% 29.78 in 10.0 mi East 4.6 mph - N/A   Scattered Clouds
8:52 PM 42.1 °F 40.2 °F 28.9 °F 60% 29.79 in 10.0 mi NE 3.5 mph - N/A   Scattered Clouds
9:52 PM 33.1 °F 26.9 °F 27.0 °F 78% 29.81 in 10.0 mi NNW 6.9 mph - N/A   Clear
10:52 PM 33.1 °F 30.0 °F 28.0 °F 82% 29.82 in 10.0 mi North 3.5 mph - N/A   Mostly Cloudy
11:52 PM 33.1 °F 28.7 °F 27.0 °F 78% 29.83 in 10.0 mi North 4.6 mph - N/A   Overcast